Weather History for Indian Springs, NV

Change the Weather History Date:

Monday, November 11, 2013

  Actual Average (KDRA) Record (KDRA)
Temperature  
Mean Temperature 56 °F -  
Max Temperature 75 °F 61 °F 77 °F (1996)
Min Temperature 37 °F 39 °F 25 °F (2012)
Degree Days  
Heating Degree Days 9    
Growing Degree Days 6 (Base 50)    
Moisture  
Dew Point 17 °F    
Average Humidity 26    
Maximum Humidity 43    
Minimum Humidity 10    
Precipitation  
Precipitation 0.00 in - - ()
Sea Level Pressure  
Sea Level Pressure 30.23 in    
Wind  
Wind Speed 1 mph (SW)    
Max Wind Speed 6 mph    
Max Gust Speed -    
Visibility 10 miles    
Events      
Averages and records for this station are not official NWS values.
T = Trace of Precipitation, MM = Missing Value Source: NWS Daily Summary

Daily Weather History Graph

Daily Weather History Graph

Search for Another Location

Airport:

Trip Planner

Search our weather history database for the weather conditions in past years. The results will help you decide how hot, cold, wet, or windy it might be!

Date:

Astronomy

Nov. 11, 2013 Rise Set
Actual Time 6:16 AM PST 4:36 PM PST
Civil Twilight 5:49 AM PST 5:03 PM PST
Nautical Twilight 5:18 AM PST 5:34 PM PST
Astronomical Twilight 4:47 AM PST 6:05 PM PST
Moon 1:11 PM PST (11/11) 12:16 AM PST (11/11)
Length of Visible Light 11h 14m
Length of Day
10h 19m
Waxing Gibbous, 67% of the Moon is Illuminated
Nov 11
Waxing Gibbous
Nov 17
Full
Nov 25
Last Quarter
Dec 2
New
Dec 9
First Quarter

Hourly Weather History & Observations

Time (PST) Temp. Dew Point Humidity Pressure Visibility Wind Dir Wind Speed Gust Speed Precip Events Conditions
12:58 AM 44.1 °F 17.6 °F 35% 30.21 in 10.0 mi Calm Calm - N/A   Clear
1:58 AM 38.3 °F 14.5 °F 38% 30.21 in 10.0 mi NW 1.2 mph - N/A   Clear
2:58 AM 39.6 °F 17.6 °F 41% 30.20 in 10.0 mi Calm Calm - N/A   Clear
3:58 AM 38.8 °F 13.8 °F 36% 30.21 in 10.0 mi Calm Calm - N/A   Clear
4:58 AM 37.9 °F 15.4 °F 40% 30.22 in 10.0 mi Calm Calm - N/A   Clear
5:58 AM 37.4 °F 16.5 °F 43% 30.23 in 10.0 mi East 1.2 mph - N/A   Clear
6:58 AM 37.0 °F 12.4 °F 36% 30.25 in 10.0 mi Calm Calm - N/A   Clear
7:58 AM 43.7 °F 16.5 °F 34% 30.27 in 10.0 mi WNW 2.3 mph - N/A   Clear
8:58 AM 50.5 °F 17.6 °F 27% 30.27 in 10.0 mi Calm Calm - N/A   Clear
9:58 AM 56.3 °F 17.6 °F 22% 30.27 in 10.0 mi Calm Calm - N/A   Clear
10:58 AM 62.6 °F 18.5 °F 18% 30.26 in 10.0 mi Calm Calm - N/A   Clear
11:58 AM 69.8 °F 17.1 °F 13% 30.22 in 10.0 mi NNW 1.2 mph - N/A   Clear
12:58 PM 70.3 °F 17.6 °F 13% 30.20 in 10.0 mi WSW 4.6 mph - N/A   Clear
1:58 PM 75.4 °F 13.6 °F 10% 30.19 in 10.0 mi North 1.2 mph - N/A   Clear
2:58 PM 74.5 °F 14.9 °F 10% 30.19 in 10.0 mi Calm Calm - N/A   Clear
3:58 PM 73.0 °F 18.0 °F 12% 30.19 in 10.0 mi ESE 5.8 mph - N/A   Clear
4:58 PM 67.6 °F 18.5 °F 15% 30.20 in 10.0 mi SSW 1.2 mph - N/A   Clear
5:59 PM 61.7 °F 19.4 °F 20% 30.22 in 10.0 mi SE 2.3 mph - N/A   Clear
6:58 PM 54.7 °F 16.7 °F 22% 30.23 in 10.0 mi Calm Calm - N/A   Clear
7:58 PM 50.2 °F 16.2 °F 26% 30.24 in 10.0 mi SE 2.3 mph - N/A   Clear
8:58 PM 51.4 °F 18.3 °F 27% 30.26 in 10.0 mi Calm Calm - N/A   Clear
9:58 PM 50.7 °F 19.4 °F 29% 30.27 in 10.0 mi ESE 2.3 mph - N/A   Clear
10:58 PM 46.0 °F 16.0 °F 30% 30.28 in 10.0 mi West 2.3 mph - N/A   Clear
11:58 PM 46.8 °F 18.9 °F 33% 30.28 in 10.0 mi Calm Calm - N/A   Clear